Hourly Data Report for September 07, 2017

All times are specified in Local Standard Time (LST). Add 1 hour to adjust for Daylight Saving Time where and when it is observed.

TORONTO INTL A
ONTARIO

43°40'36.000" N
79°37'50.000" W
173.40 m
6158731
71624
YYZ

Download Data

Hourly Data (September 2017)
Hourly Data Report for September 7, 2017
Temp Definition
°C
Dew Point Temp Definition
°C
Rel Hum Definition
%
Wind Dir Definition
10's deg

Wind Spd Definition
km/h
Visibility Definition
km
Stn Press Definition
kPa
Hmdx Definition


Wind Chill Definition


Weather Definition


TIME
00:00 Legend Double Dagger 13.7 10.8 82 34 13 24.1 99.06     LegendNANA
01:00 Legend Double Dagger 13.4 10.1 80 34 14 24.1 99.03     Mostly Cloudy
02:00 Legend Double Dagger 12.2 9.4 83 32 12 24.1 99.00     LegendNANA
03:00 Legend Double Dagger 11.0 9.0 87 25 6 24.1 98.98     LegendNANA
04:00 Legend Double Dagger 10.8 9.0 89 29 9 24.1 98.98     Mainly Clear
05:00 Legend Double Dagger 10.2 8.6 90 28 7 24.1 99.01     LegendNANA
06:00 Legend Double Dagger 10.1 8.3 89 27 12 24.1 98.99     LegendNANA
07:00 Legend Double Dagger 12.2 9.3 82 28 9 24.1 98.99     Mainly Clear
08:00 Legend Double Dagger 14.4 9.8 73 25 13 24.1 98.97     LegendNANA
09:00 Legend Double Dagger 16.5 10.6 67 25 23 24.1 98.99     LegendNANA
10:00 Legend Double Dagger 17.5 9.5 59 26 25 24.1 98.98     Mostly Cloudy
11:00 Legend Double Dagger 18.5 9.2 54 24 25 24.1 98.94     LegendNANA
12:00 Legend Double Dagger 18.9 8.7 51 27 23 24.1 98.91     LegendNANA
13:00 Legend Double Dagger 19.9 9.1 49 26 32 24.1 98.89     Mostly Cloudy
14:00 Legend Double Dagger 15.1 12.7 85 26 14 24.1 98.92     Rain Showers
15:00 Legend Double Dagger 15.4 10.0 70 32 37 24.1 98.95     LegendNANA
16:00 Legend Double Dagger 15.5 10.1 70 30 32 24.1 99.05     Cloudy
17:00 Legend Double Dagger 14.9 10.8 76 28 19 24.1 99.08     Rain Showers
18:00 Legend Double Dagger 14.4 10.4 77 28 25 24.1 99.12     LegendNANA
19:00 Legend Double Dagger 13.5 9.6 77 28 15 24.1 99.16     Mostly Cloudy
20:00 Legend Double Dagger 12.9 9.7 81 27 16 24.1 99.21     LegendNANA
21:00 Legend Double Dagger 11.7 9.3 85 25 11 24.1 99.24     LegendNANA
22:00 Legend Double Dagger 10.8 8.7 87 25 14 24.1 99.30     Mainly Clear
23:00 Legend Double Dagger 10.8 8.5 86 25 12 24.1 99.33     LegendNANA

Notes on Data Quality.

Legend

  • E = Estimated
  • M = Missing
  • NA = Not Available
  • ‡ = Partner data that is not subject to review by the National Climate Archives
Date modified: